Weather History for Blacksburg, VA

Change the Weather History Date:

Wednesday, October 27, 2010

  Actual Average Record
Temperature  
Mean Temperature 62 °F 49 °F  
Max Temperature 72 °F 63 °F 79 °F (1963)
Min Temperature 52 °F 36 °F 13 °F (1962)
Degree Days  
Heating Degree Days 3 16  
Month to date heating degree days 251 331  
Since 1 July heating degree days 309 462  
Cooling Degree Days 0 0  
Month to date cooling degree days 0 1  
Year to date cooling degree days 895 570  
Growing Degree Days 16 (Base 50)    
Moisture  
Dew Point 64 °F    
Average Humidity 89    
Maximum Humidity 100    
Minimum Humidity 78    
Precipitation  
Precipitation 1.03 in 0.10 in 2.63 in (1981)
Month to date precipitation 2.92 2.41  
Year to date precipitation 34.32 34.70  
Snow  
Snow 0.00 in - - ()
Month to date snowfall 0.0  
Since 1 July snowfall 0.0  
Since 1 September snowfall 0.0  
Snow Depth 0.00 in    
Sea Level Pressure  
Sea Level Pressure 29.97 in    
Wind  
Wind Speed 4 mph (WSW)    
Max Wind Speed 8 mph    
Max Gust Speed -    
Visibility 9 miles    
Events Rain    
T = Trace of Precipitation, MM = Missing Value Source: NWS Daily Summary

Daily Weather History Graph

Daily Weather History Graph

Search for Another Location

Airport:

Trip Planner

Search our weather history database for the weather conditions in past years. The results will help you decide how hot, cold, wet, or windy it might be!

Date:

Astronomy

Oct. 27, 2010 Rise Set
Actual Time 7:40 AM EDT 6:29 PM EDT
Civil Twilight 7:14 AM EDT 6:56 PM EDT
Nautical Twilight 6:43 AM EDT 7:26 PM EDT
Astronomical Twilight 6:13 AM EDT 7:56 PM EDT
Moon 9:56 PM EDT (10/27) 12:08 PM EDT (10/27)
Length of Visible Light 11h 41m
Length of Day
10h 48m
Waning Gibbous, 79% of the Moon is Illuminated
Oct 27
Waning Gibbous
Oct 30
Last Quarter
Nov 6
New
Nov 13
First Quarter
Nov 21
Full

Hourly Weather History & Observations

Time (EDT) Temp. Dew Point Humidity Pressure Visibility Wind Dir Wind Speed Gust Speed Precip Events Conditions
12:00 AM 68.0 °F 66.2 °F 94% 29.90 in 10.0 mi SSW 5.8 mph - N/A Rain Light Rain
12:20 AM 69.8 °F 66.2 °F 88% 29.89 in 10.0 mi South 8.1 mph - N/A Rain Rain
12:40 AM 68.0 °F 66.2 °F 94% 29.89 in 10.0 mi South 5.8 mph - 0.02 in Rain Light Rain
1:00 AM 68.0 °F 66.2 °F 94% 29.89 in 10.0 mi SSW 5.8 mph - N/A Rain Light Rain
1:20 AM 66.2 °F 66.2 °F 100% 29.90 in 10.0 mi West 3.5 mph - 0.02 in Rain Rain
1:40 AM 66.2 °F 66.2 °F 100% 29.88 in 10.0 mi WSW 3.5 mph - 0.06 in Rain Light Rain
2:00 AM 66.2 °F 66.2 °F 100% 29.90 in 10.0 mi SSW 3.5 mph - N/A   Overcast
2:20 AM 66.2 °F 66.2 °F 100% 29.90 in 10.0 mi Calm Calm - N/A   Overcast
2:40 AM 66.2 °F 66.2 °F 100% 29.91 in 7.0 mi Calm Calm - 0.02 in Rain Light Rain
3:00 AM 66.2 °F 66.2 °F 100% 29.91 in 10.0 mi Calm Calm - N/A Rain Light Rain
3:20 AM 66.2 °F 66.2 °F 100% 29.91 in 10.0 mi Calm Calm - N/A   Drizzle
3:40 AM 66.2 °F 66.2 °F 100% 29.90 in 7.0 mi Calm Calm - N/A Rain Light Rain
4:00 AM 66.2 °F 66.2 °F 100% 29.90 in 5.0 mi Calm Calm - 0.01 in Rain Rain
4:20 AM 64.4 °F 64.4 °F 100% 29.90 in 3.0 mi Calm Calm - 0.01 in Rain Light Rain
4:40 AM 64.4 °F 64.4 °F 100% 29.90 in 3.0 mi Calm Calm - 0.03 in Rain Light Rain
5:01 AM 64.4 °F 64.4 °F 100% 29.91 in 1.5 mi North 8.1 mph - 0.24 in Rain Heavy Rain
5:20 AM 64.4 °F 64.4 °F 100% 29.90 in 5.0 mi West 4.6 mph - 0.56 in Rain Light Rain
5:40 AM 62.6 °F 62.6 °F 100% 29.93 in 10.0 mi West 4.6 mph - 0.56 in   Mostly Cloudy
6:00 AM 62.6 °F 62.6 °F 100% 29.94 in 10.0 mi West 3.5 mph - N/A   Mostly Cloudy
6:20 AM 62.6 °F 62.6 °F 100% 29.96 in 10.0 mi Calm Calm - N/A   Overcast
6:40 AM 62.6 °F 62.6 °F 100% 29.95 in 10.0 mi Calm Calm - N/A   Overcast
7:00 AM 62.6 °F 62.6 °F 100% 29.96 in 10.0 mi Calm Calm - N/A   Overcast
7:20 AM 62.6 °F 62.6 °F 100% 29.95 in 10.0 mi Calm Calm - N/A   Overcast
8:00 AM 62.6 °F 62.6 °F 100% 29.95 in 10.0 mi Calm Calm - N/A   Light Drizzle
8:20 AM 62.6 °F 62.6 °F 100% 29.97 in 10.0 mi Calm Calm - N/A   Overcast
8:40 AM 62.6 °F 62.6 °F 100% 29.97 in 10.0 mi Calm Calm - N/A   Overcast
9:00 AM 62.6 °F 62.6 °F 100% 29.99 in 10.0 mi Calm Calm - N/A   Light Drizzle
9:20 AM 62.6 °F 62.6 °F 100% 30.00 in 5.0 mi WNW 6.9 mph - 0.06 in Rain Heavy Rain
9:40 AM 62.6 °F 62.6 °F 100% 30.01 in 7.0 mi West 4.6 mph - 0.06 in   Mostly Cloudy
10:00 AM 62.6 °F 62.6 °F 100% 30.03 in 10.0 mi West 5.8 mph - N/A   Drizzle
10:20 AM 62.6 °F 62.6 °F 100% 30.03 in 10.0 mi West 3.5 mph - N/A   Overcast
10:40 AM 62.6 °F 62.6 °F 100% 30.03 in 10.0 mi WNW 3.5 mph - N/A   Overcast
11:00 AM 64.4 °F 64.4 °F 100% 30.04 in 10.0 mi WSW 4.6 mph - N/A   Overcast
11:20 AM 64.4 °F 64.4 °F 100% 30.03 in 10.0 mi WSW 5.8 mph - N/A   Overcast
11:40 AM 64.4 °F 64.4 °F 100% 30.04 in 10.0 mi West 4.6 mph - N/A   Overcast
12:00 PM 66.2 °F 62.6 °F 88% 30.04 in 10.0 mi WSW 6.9 mph - N/A   Overcast
12:20 PM 68.0 °F 64.4 °F 88% 30.04 in 10.0 mi WSW 6.9 mph - N/A   Overcast
12:40 PM 69.8 °F 62.6 °F 78% 30.03 in 10.0 mi SW 8.1 mph - N/A   Overcast
1:00 PM 69.8 °F 62.6 °F 78% 30.02 in 10.0 mi West 6.9 mph - N/A   Overcast
1:40 PM 69.8 °F 62.6 °F 78% 30.02 in 10.0 mi WNW 5.8 mph - N/A   Mostly Cloudy
2:00 PM 69.8 °F 62.6 °F 78% 30.02 in 10.0 mi West 6.9 mph - N/A   Overcast
2:20 PM 68.0 °F 62.6 °F 83% 30.01 in 10.0 mi WSW 5.8 mph - N/A   Drizzle
2:40 PM 69.8 °F 62.6 °F 78% 30.00 in 10.0 mi West 4.6 mph - N/A   Mostly Cloudy
3:00 PM 69.8 °F 62.6 °F 78% 30.01 in 10.0 mi WNW 5.8 mph - N/A   Overcast
3:20 PM 68.0 °F 62.6 °F 83% 30.00 in 10.0 mi WSW 3.5 mph - N/A Rain Light Rain
3:40 PM 69.8 °F 62.6 °F 78% 30.00 in 10.0 mi West 5.8 mph - N/A   Overcast
4:00 PM 68.0 °F 62.6 °F 83% 30.00 in 10.0 mi WNW 4.6 mph - N/A   Overcast
4:20 PM 68.0 °F 62.6 °F 83% 29.99 in 10.0 mi WNW 6.9 mph - N/A   Mostly Cloudy
4:40 PM 68.0 °F 62.6 °F 83% 29.99 in 10.0 mi West 5.8 mph - N/A   Mostly Cloudy
5:00 PM 68.0 °F 62.6 °F 83% 29.99 in 10.0 mi WSW 8.1 mph - N/A   Overcast
5:20 PM 68.0 °F 62.6 °F 83% 29.99 in 10.0 mi SW 6.9 mph - N/A   Overcast
5:40 PM 68.0 °F 62.6 °F 83% 29.99 in 10.0 mi Calm Calm - N/A   Overcast
6:00 PM 69.8 °F 62.6 °F 78% 29.99 in 10.0 mi West 5.8 mph - N/A   Overcast
6:20 PM 66.2 °F 62.6 °F 88% 30.00 in 10.0 mi West 8.1 mph - N/A   Scattered Clouds
6:40 PM 66.2 °F 62.6 °F 88% 30.01 in 10.0 mi West 4.6 mph - N/A   Mostly Cloudy
7:00 PM 66.2 °F 62.6 °F 88% 30.02 in 10.0 mi West 8.1 mph - N/A   Mostly Cloudy
7:20 PM 66.2 °F 62.6 °F 88% 30.01 in 10.0 mi West 8.1 mph - N/A   Overcast
7:40 PM 66.2 °F 62.6 °F 88% 30.02 in 10.0 mi West 5.8 mph - N/A   Scattered Clouds
8:00 PM 64.4 °F 62.6 °F 94% 30.04 in 10.0 mi NW 5.8 mph - N/A   Scattered Clouds
8:20 PM 64.4 °F 60.8 °F 88% 30.04 in 10.0 mi West 4.6 mph - N/A   Mostly Cloudy
9:00 PM 62.6 °F 60.8 °F 94% 30.05 in 10.0 mi Calm Calm - N/A   Clear
9:20 PM 62.6 °F 60.8 °F 94% 30.05 in 10.0 mi WSW 4.6 mph - N/A   Clear
9:40 PM 60.8 °F 60.8 °F 100% 30.06 in 10.0 mi West 4.6 mph - N/A   Clear
10:00 PM 60.8 °F 60.8 °F 100% 30.07 in 10.0 mi West 3.5 mph - N/A   Mostly Cloudy
10:20 PM 60.8 °F 60.8 °F 100% 30.08 in 10.0 mi West 3.5 mph - N/A   Overcast
10:40 PM 60.8 °F 59.0 °F 94% 30.09 in 10.0 mi Calm Calm - N/A   Mostly Cloudy
11:00 PM 60.8 °F 57.2 °F 88% 30.09 in 10.0 mi Calm Calm - N/A   Scattered Clouds
11:20 PM 57.2 °F 57.2 °F 100% 30.09 in 10.0 mi NNW 3.5 mph - N/A   Clear
11:40 PM 57.2 °F 55.4 °F 94% 30.09 in 10.0 mi NNW 4.6 mph - N/A   Clear